Ketchikan, AK

10:08 PM AKDT on September 22, 2018 (GMT -0800)
Ketchikan International

Weather History for PAKT - November, 2017

Change the Weather History Date:

Saturday, November 11, 2017

  Actual Average Record
Temperature  
Mean Temperature 40 °F -  
Max Temperature 42 °F 45 °F 58 °F (1953)
Min Temperature 37 °F 35 °F 13 °F (1973)
Degree Days  
Heating Degree Days 26    
Moisture  
Dew Point 37 °F    
Average Humidity 92    
Maximum Humidity 97    
Minimum Humidity 87    
Precipitation  
Precipitation 0.85 in - - ()
Sea Level Pressure  
Sea Level Pressure 29.72 in    
Wind  
Wind Speed 5 mph (SSW)    
Max Wind Speed 14 mph    
Max Gust Speed 17 mph    
Visibility 8 miles    
Events Rain    
Averages and records for this station are not official NWS values.
T = Trace of Precipitation, MM = Missing Value Source: NWS Daily Summary

Daily Weather History Graph

Daily Weather History Graph

Search for Another Location

Airport or City:

Astronomy

Nov. 11, 2017 Rise Set
Actual Time 7:13 AM AKST 3:47 PM AKST
Civil Twilight 6:32 AM AKST 4:28 PM AKST
Nautical Twilight 5:48 AM AKST 5:12 PM AKST
Astronomical Twilight 5:05 AM AKST 5:55 PM AKST
Moon No Moon Rise 1:51 PM AKST (11/11)
Length of Visible Light 9h 56m
Length of Day
8h 34m
Last Quarter, 39% of the Moon is Illuminated
Nov 11
Last Quarter
Nov 18
New
Nov 26
First Quarter
Dec 3
Full
Dec 9
Last Quarter

Hourly Weather History & Observations

Time (AKST) Temp. Windchill Dew Point Humidity Pressure Visibility Wind Dir Wind Speed Gust Speed Precip Events Conditions
12:53 AM 37.0 °F 33.3 °F 35.1 °F 93% 29.78 in 5.0 mi South 4.6 mph - 0.13 in Rain Rain
1:02 AM 37.0 °F 34.5 °F 35.1 °F 93% 29.78 in 5.0 mi SSW 3.5 mph - 0.01 in Rain Light Rain
1:53 AM 37.4 °F 33.8 °F 35.6 °F 93% 29.78 in 5.0 mi South 4.6 mph - N/A Rain Rain
2:02 AM 37.0 °F 33.3 °F 35.1 °F 93% 29.78 in 6.0 mi Variable 4.6 mph - 0.01 in Rain Light Rain
2:09 AM 37.9 °F 32.7 °F 36.0 °F 93% 29.77 in 5.0 mi South 6.9 mph - 0.02 in Rain Light Rain
2:21 AM 37.9 °F 32.1 °F 37.0 °F 97% 29.77 in 4.0 mi South 8.1 mph - 0.04 in Rain Light Rain
2:53 AM 39.0 °F 31.0 °F 36.0 °F 89% 29.78 in 7.0 mi SSE 13.8 mph 17.3 mph 0.07 in Rain Light Rain
3:53 AM 37.0 °F 32.4 °F 35.1 °F 93% 29.77 in 6.0 mi Variable 5.8 mph - 0.13 in Rain Light Rain
4:53 AM 37.9 °F 32.7 °F 36.0 °F 93% 29.76 in 9.0 mi South 6.9 mph - 0.07 in Rain Light Rain
5:53 AM 39.0 °F 31.8 °F 36.0 °F 89% 29.76 in 10.0 mi SSE 11.5 mph - 0.03 in Rain Light Rain
6:53 AM 37.9 °F 32.1 °F 36.0 °F 93% 29.77 in 6.0 mi South 8.1 mph - 0.09 in Rain Rain
7:53 AM 37.9 °F 34.4 °F 36.0 °F 93% 29.77 in 6.0 mi South 4.6 mph - 0.10 in Rain Rain
8:53 AM 39.0 °F 35.7 °F 37.0 °F 93% 29.76 in 9.0 mi Variable 4.6 mph - 0.05 in Rain Light Rain
9:53 AM 41.0 °F - 37.9 °F 89% 29.75 in 10.0 mi Calm Calm - 0.02 in Rain Light Rain
10:53 AM 41.0 °F 39.0 °F 39.0 °F 93% 29.73 in 10.0 mi NW 3.5 mph - 0.00 in   Overcast
11:53 AM 42.8 °F 41.1 °F 39.2 °F 87% 29.71 in 10.0 mi WNW 3.5 mph - N/A   Overcast
12:53 PM 41.0 °F 36.4 °F 37.9 °F 89% 29.70 in 10.0 mi WNW 6.9 mph - N/A   Overcast
1:53 PM 41.0 °F 37.1 °F 37.9 °F 89% 29.70 in 10.0 mi SSE 5.8 mph - 0.00 in Rain Light Rain
2:53 PM 41.0 °F - 39.0 °F 93% 29.69 in 10.0 mi Calm Calm - 0.00 in   Overcast
3:53 PM 39.9 °F - 39.0 °F 97% 29.68 in 6.0 mi Calm Calm - 0.03 in Rain Light Rain
4:53 PM 39.0 °F 36.8 °F 37.0 °F 93% 29.67 in 10.0 mi NW 3.5 mph - 0.03 in Rain Light Rain
5:53 PM 39.2 °F - 37.4 °F 93% 29.66 in 7.0 mi Calm Calm - N/A Rain Light Rain
6:53 PM 39.0 °F 34.8 °F 37.0 °F 93% 29.64 in 10.0 mi WNW 5.8 mph - 0.02 in Rain Light Rain
7:53 PM 39.9 °F 33.4 °F 37.0 °F 89% 29.62 in 10.0 mi WNW 10.4 mph - 0.00 in   Overcast
8:53 PM 39.9 °F - 37.9 °F 93% 29.63 in 10.0 mi Calm Calm - 0.01 in Rain Light Rain
9:53 PM 39.0 °F - 37.9 °F 96% 29.63 in 10.0 mi Calm Calm - 0.05 in Rain Light Rain
10:53 PM 39.9 °F - 37.9 °F 93% 29.63 in 10.0 mi Calm Calm - 0.02 in   Overcast
11:53 PM 39.0 °F - 37.0 °F 93% 29.64 in 10.0 mi Calm Calm - 0.00 in   Mostly Cloudy